{"data":{"norad_id":52118,"epoch":"2026-09-19T12:33:22.053888Z","epoch_age_seconds":140540,"freshness":"FRESH","line1":"1 52118U 22029AG  26262.52317192 -.00000680  00000+0 -90072-5 0  9998","line2":"2 52118  53.1610 273.9488 0001281  89.6529 270.4621 15.34385157250255","mean_motion":15.34385157,"eccentricity":0.0001281,"inclination_deg":53.161,"raan_deg":273.9488,"arg_perigee_deg":89.6529,"mean_anomaly_deg":270.4621,"bstar":-9.0072e-6,"rev_number":25025,"period_min":93.848665925279,"perigee_km":461.87103980062,"apogee_km":463.62367437291,"semimajor_km":6840.8843570868,"source":"CELESTRAK","updated_at":"2026-09-20T09:00:39.989264Z"}}